Miscellaneous Local Product
Issued by NWS North Platte, NE

Home | Current Version | Previous Version | Text Only | Print | Product List | Glossary On
Versions: 1 2 3 4 5 6 7 8 9 10 11 12 13 14 15 16 17 18 19 20 21 22 23 24 25 26 27 28 29 30 31 32 33 34 35 36 37 38 39 40 41 42 43 44 45 46 47 48 49 50
000
AXUS43 KLBF 191410
MISLBF


WESTERN AND NORTH CENTRAL NEBRASKA HOURLY WEATHER ROUNDUP
NATIONAL WEATHER SERVICE NORTH PLATTE NE
900 AM CDT FRI SEP 19 2014

***STATIONS NOT REPORTING VARIABLES SUCH AS SKY/WEATHER OR
PRESSURE ARE PROVIDED BY THE NEBRASKA DEPARTMENT OF
ROADS...RAWS...AND APRS NETWORKS...AND ARE NOT UNDER
NATIONAL WEATHER SERVICE QUALITY CONTROL***

...OBSERVATIONS IN AND NEAR THE EASTERN PANHANDLE OF NEBRASKA...

CITY           SKY/WX    TMP DP  RH WIND       PRES   REMARKS
PINE RIDGE     MOSUNNY   58  56  93 NW3       29.83S
CHADRON        MOSUNNY   61  54  77 SW6       29.86R
ALLIANCE       SUNNY     57  53  86 W10       29.89R
SIDNEY         MOSUNNY   67  44  43 W14       29.95R
WHITECLAY        N/A     57  54  89 CALM        N/A
RUSHVILLE        N/A     60  57  91 SW7         N/A
LISCO            N/A     71  50  46 W15         N/A
BIG SPRINGS      N/A     51  49  94 CALM        N/A
$$

...OBSERVATIONS IN NORTH CENTRAL NEBRASKA...

CITY           SKY/WX    TMP DP  RH WIND       PRES   REMARKS
VALENTINE      SUNNY     63  60  90 SW10      29.78S
THEDFORD       MOSUNNY   62  60  94 W6        29.87S
AINSWORTH      SUNNY     64  61  90 SW13      29.80S
O`NEILL        SUNNY     68  64  88 SW13      29.81R
ORD            SUNNY     65  61  87 S13       29.83S
BROKEN BOW     SUNNY     65  61  87 S13       29.85S
SPRINGVIEW       N/A     66  62  86 W3G12       N/A
ROSE             N/A     68  67  97 S6          N/A
NEWPORT          N/A     68  64  88 S15         N/A
COMSTOCK         N/A     70  66  88 S10         N/A
CHAMBERS         N/A     68  64  88 S8G18       N/A
$$

...OBSERVATIONS IN SOUTHWEST NEBRASKA AND FAR NORTHEAST COLORADO...

CITY           SKY/WX    TMP DP  RH WIND       PRES   REMARKS
WRAY           FAIR      66  57  73 SW9       29.93R
HOLYOKE        FAIR      64  55  72 SW7       29.91R
IMPERIAL       SUNNY     62  56  80 SW10      29.90R
OGALLALA       SUNNY     56  56  99 W3        29.89R
NORTH PLATTE   SUNNY     63  59  87 S3        29.86F
MCCOOK         SUNNY     61  60  97 CALM      29.91R
LEXINGTON      SUNNY     66  63  91 S9        29.88S
PAXTON           N/A     47  46  96 CALM        N/A
SUTHERLAND       N/A     58  56  92 W6          N/A
BRADY            N/A     61  59  94 CALM        N/A
GOTHENBURG       N/A     61  56  84 CALM        N/A
CALLAWAY         N/A     59  58  97 S9          N/A
$$

...SOME WEATHER OBSERVATIONS FROM AROUND THE REGION...

CITY           SKY/WX    TMP DP  RH WIND       PRES   REMARKS
DENVER         MOSUNNY   68  36  30 SW13      29.99R
LARAMIE        MOSUNNY   55  39  54 E6        30.17R
CHEYENNE       MOSUNNY   62  39  42 NW9G20    30.07R
SCOTTSBLUFF    MOSUNNY   61  53  75 W13       29.94R
RAPID CITY     PTSUNNY   66  52  60 SW3       29.81R
PIERRE         PTSUNNY   64  61  90 W5        29.66R
WINNER         FAIR      68  61  78 SW15      29.71S
SIOUX FALLS    CLOUDY    66  62  87 S17G25    29.78F
OMAHA          CLOUDY    64  60  87 S18       29.93S FOG
GRAND ISLAND   SUNNY     67  62  84 S15       29.89F
KANSAS CITY    CLOUDY    63  61  93 S10       30.03S
WICHITA        MOSUNNY   69  65  86 S9        29.99R
HAYS           SUNNY     66  57  72 S12       29.97R
LIBERAL        SUNNY     64  57  77 SW10      30.02S
GOODLAND       SUNNY     65  59  81 SW10      29.96R
$$



USA.gov is the U.S. government's official web portal to all federal, state and local government web resources and services.